Simultaneous Nadir Overpasses (SNOs) Predictions

Prediction of SNOs between NOAA-21 and METOP-C Satellite Orbit:

Table of predicted SNOs for the next 14.0 days since TLE Epoch: 12/31/2022
Index Date (NOAA-21) Time (NOAA-21) Lat,Lon (NOAA-21) SZA (NOAA-21 ) Date (METOP-C) Time (METOP-C) Lat,Lon (METOP-C) SZA (METOP-C ) Distance(km) Time Diff (sec)
1 01/04/2023 06:39:57 73.38, 70.65 96.29 01/04/2023 06:41:05 73.33, 72.96 96.13 73.61 68
2 01/04/2023 07:30:39 -73.28,-121.81 83.83 01/04/2023 07:31:48 -73.22,-119.97 83.98 59.51 69
3 01/04/2023 08:21:21 73.09, 45.93 95.96 01/04/2023 08:22:32 73.06, 47.02 95.87 35.27 71
4 01/04/2023 09:12:03 -72.99,-146.54 84.16 01/04/2023 09:13:16 -72.89,-146.00 84.29 20.30 73
5 01/04/2023 10:02:44 72.79, 21.19 95.63 01/04/2023 10:03:58 72.78, 21.09 95.61 3.17 74
6 01/04/2023 10:53:28 -72.79,-171.50 84.38 01/04/2023 10:54:38 -72.82,-171.50 84.36 3.55 70
7 01/04/2023 11:44:14 72.79, -4.20 95.63 01/04/2023 11:45:19 72.81, -4.19 95.63 2.11 65
8 01/04/2023 12:34:58 -72.80, 163.11 84.38 01/04/2023 12:36:00 -72.80, 163.12 84.39 0.52 62
9 01/04/2023 13:25:44 72.80, -29.58 95.63 01/04/2023 13:26:41 72.79, -29.57 95.61 1.06 57
10 01/04/2023 14:16:28 -72.80, 137.73 84.38 01/04/2023 14:17:22 -72.78, 137.73 84.41 2.59 54
11 01/04/2023 15:07:13 72.75, -54.86 95.57 01/04/2023 15:08:03 72.77, -54.96 95.58 3.52 50
12 01/04/2023 15:57:57 -72.76, 112.45 84.44 01/04/2023 15:58:44 -72.76, 112.35 84.44 3.26 47
13 01/04/2023 16:48:43 72.76, -80.25 95.57 01/04/2023 16:49:25 72.74, -80.35 95.55 3.54 42
14 01/04/2023 17:39:27 -72.76, 87.06 84.44 01/04/2023 17:40:05 -72.78, 87.07 84.42 2.55 38
15 01/04/2023 18:30:13 72.76,-105.64 95.57 01/04/2023 18:30:46 72.77,-105.63 95.57 1.02 33
16 01/04/2023 19:20:57 -72.77, 61.67 84.44 01/04/2023 19:21:27 -72.76, 61.68 84.45 0.56 30
17 01/04/2023 20:11:43 72.77,-131.02 95.57 01/04/2023 20:12:08 72.75,-131.01 95.54 2.14 25
18 01/04/2023 21:02:27 -72.77, 36.29 84.44 01/04/2023 21:02:49 -72.74, 36.29 84.48 3.59 22
19 01/04/2023 21:53:12 72.72,-156.30 95.51 01/04/2023 21:53:30 72.73,-156.40 95.51 3.23 18
20 01/04/2023 22:43:56 -72.73, 11.01 84.50 01/04/2023 22:44:11 -72.72, 10.91 84.50 3.41 15
21 01/04/2023 23:34:42 72.73, 178.31 95.51 01/04/2023 23:34:51 72.76, 178.32 95.53 2.98 9
22 01/05/2023 00:25:26 -72.73, -14.38 84.50 01/05/2023 00:25:32 -72.75, -14.37 84.49 1.54 6
23 01/05/2023 01:16:12 72.73, 152.93 95.51 01/05/2023 01:16:13 72.73, 152.93 95.50 0.29 1
24 01/05/2023 02:06:56 -72.74, -39.76 84.50 01/05/2023 02:06:54 -72.72, -39.76 84.51 1.56 2
25 01/05/2023 02:57:42 72.74, 127.54 95.51 01/05/2023 02:57:35 72.71, 127.55 95.48 3.26 7
26 01/05/2023 03:48:25 -72.69, -65.05 84.56 01/05/2023 03:48:16 -72.70, -65.14 84.54 3.39 9
27 01/05/2023 04:39:11 72.69, 102.26 95.45 01/05/2023 04:38:57 72.69, 102.16 95.45 3.30 14
28 01/05/2023 05:29:55 -72.70, -90.43 84.56 01/05/2023 05:29:37 -72.73, -90.42 84.52 3.57 18
29 01/05/2023 06:20:41 72.70, 76.87 95.45 01/05/2023 06:20:18 72.72, 76.88 95.47 1.85 23
30 01/05/2023 07:11:25 -72.70,-115.82 84.56 01/05/2023 07:10:59 -72.71,-115.81 84.55 0.54 26
31 01/05/2023 08:02:11 72.71, 51.49 95.45 01/05/2023 08:01:40 72.69, 51.49 95.44 1.31 31
32 01/05/2023 08:52:55 -72.71,-141.20 84.56 01/05/2023 08:52:21 -72.68,-141.20 84.58 2.60 34
33 01/05/2023 09:43:40 72.66, 26.20 95.39 01/05/2023 09:43:02 72.67, 26.11 95.41 3.45 38
34 01/05/2023 10:34:24 -72.66,-166.48 84.62 01/05/2023 10:33:43 -72.66,-166.58 84.61 3.20 41
35 01/05/2023 11:25:10 72.67, 0.82 95.39 01/05/2023 11:24:24 72.65, 0.72 95.38 3.72 46
36 01/05/2023 12:15:54 -72.67, 168.13 84.62 01/05/2023 12:15:04 -72.69, 168.14 84.59 2.53 50
37 01/05/2023 13:06:40 72.67, -24.57 95.39 01/05/2023 13:05:45 72.68, -24.56 95.40 0.71 55
38 01/05/2023 13:57:24 -72.67, 142.74 84.62 01/05/2023 13:56:26 -72.67, 142.75 84.62 0.62 58
39 01/05/2023 14:48:10 72.68, -49.95 95.38 01/05/2023 14:47:07 72.65, -49.95 95.37 2.46 63
40 01/05/2023 15:38:54 -72.68, 117.36 84.62 01/05/2023 15:37:48 -72.65, 117.37 84.64 3.66 66
41 01/05/2023 16:29:39 72.63, -75.23 95.33 01/05/2023 16:28:29 72.63, -75.33 95.35 3.21 70
42 01/05/2023 17:20:23 -72.63, 92.08 84.68 01/05/2023 17:19:10 -72.62, 91.98 84.67 3.34 73
43 01/05/2023 18:11:06 72.48,-100.31 95.16 01/05/2023 18:09:53 72.51,-100.92 95.23 20.63 73
44 01/05/2023 19:01:48 -72.39, 67.20 84.96 01/05/2023 19:00:36 -72.40, 66.19 84.88 34.10 72
45 01/05/2023 19:52:30 72.18,-125.09 94.83 01/05/2023 19:51:21 72.18,-126.91 94.92 61.90 69
46 01/05/2023 20:43:12 -72.08, 42.41 85.29 01/05/2023 20:42:04 -72.07, 40.21 85.18 75.33 68
47 01/05/2023 21:33:54 71.88,-149.90 94.50 01/05/2023 21:32:48 71.90,-152.78 94.66 99.90 66



Historial Predications of SNOs between NOAA-21 and METOP-C
